Location: Palomar Mountain Lodge
(33.3110°N, 116.8495°W)
Time: 14:51:26
(UTC-07:00)

Cosmos 1743 - Pass Details

Date: 19 May 2017
Orbit: 513 x 530 km, 82.6° (Epoch: 24 May)

Event Time Altitude Azimuth Distance (km) Brightness Sun altitude
Rises 21:52:36 0° 351° (N) 2,650 7.2 -22.8°
Reaches altitude 10° 21:54:45 10° 350° (N) 1,761 6.1 -23.1°
Enters shadow 21:58:24 72° 297° (WNW) 553 2.8 -23.6°
